Temp
-3 -4 -5 -6 -7 -7 -7 -8 -9 -9 -9 -11 -11 -11 -12 -11 -12 -12 -13 -13 -14 -15 -15 -15 -15 -16 -16 -16 -16 -16 -15 -15 -15 -14 -13 -13 -13 -13 -13 -13 -13 -12 -12
-4 -6 -7 -8 -8 -9 -8 -9 -9 -10 -11 -11 -11 -12 -12 -13 -14 -14 -14 -14 -15 -15 -16 -16 -16 -16 -16 -16 -16 -16 -16 -15 -15 -14 -14 -14 -14 -14 -14 -14 -14 -13 -12
-6 -7 -8 -8 -9 -10 -10 -10 -11 -11 -11 -11 -12 -13 -13 -14 -15 -15 -15 -15 -15 -16 -17 -17 -17 -17 -17 -17 -17 -17 -17 -17 -16 -16 -16 -17 -16 -15 -15 -14 -14 -15 -13
-7 -8 -8 -9 -9 -9 -10 -11 -11 -11 -12 -12 -14 -14 -14 -15 -16 -16 -15 -15 -16 -16 -17 -17 -17 -17 -17 -17 -17 -17 -17 -17 -17 -17 -17 -17 -17 -16 -16 -15 -15 -16 -15
-9 -9 -9 -10 -10 -10 -12 -12 -13 -13 -13 -13 -14 -15 -15 -16 -16 -16 -15 -16 -16 -17 -17 -17 -18 -18 -18 -18 -18 -18 -18 -18 -18 -18 -17 -17 -17 -17 -17 -17 -16 -16 -16
-9 -10 -10 -10 -10 -11 -11 -12 -13 -13 -13 -13 -14 -15 -15 -16 -16 -16 -16 -16 -17 -17 -17 -18 -18 -18 -19 -19 -19 -19 -19 -19 -19 -18 -18 -18 -18 -18 -17 -17 -17 -16 -15
-10 -10 -11 -11 -11 -12 -12 -13 -13 -14 -14 -14 -15 -15 -16 -17 -16 -16 -16 -16 -17 -17 -18 -18 -18 -18 -19 -19 -19 -19 -19 -19 -20 -19 -19 -18 -18 -18 -17 -17 -17 -16 -16
-10 -10 -11 -11 -12 -12 -12 -13 -13 -14 -14 -15 -15 -16 -16 -16 -16 -16 -16 -16 -17 -17 -18 -18 -18 -18 -19 -19 -20 -20 -20 -20 -20 -19 -19 -19 -18 -18 -18 -17 -16 -16 -16
-11 -11 -12 -12 -12 -13 -13 -13 -14 -14 -15 -16 -16 -16 -16 -16 -16 -16 -16 -16 -17 -17 -17 -18 -18 -19 -19 -20 -20 -20 -20 -20 -20 -19 -19 -19 -18 -18 -17 -17 -16 -16 -16
-11 -12 -12 -12 -13 -13 -13 -14 -14 -15 -15 -16 -16 -16 -16 -16 -16 -16 -16 -16 -17 -17 -17 -18 -18 -19 -19 -20 -20 -20 -20 -20 -20 -20 -19 -19 -18 -18 -17 -17 -17 -17 -16
-12 -12 -12 -13 -13 -13 -14 -14 -15 -16 -15 -16 -16 -16 -16 -16 -16 -17 -16 -16 -16 -17 -17 -18 -18 -19 -19 -20 -20 -20 -20 -20 -20 -19 -19 -19 -18 -18 -18 -17 -17 -17 -17
-12 -13 -13 -13 -14 -14 -14 -15 -16 -16 -16 -16 -16 -16 -16 -16 -17 -17 -16 -17 -17 -17 -17 -18 -18 -19 -19 -19 -20 -20 -20 -20 -19 -19 -19 -18 -18 -18 -17 -17 -17 -17 -16
-13 -13 -13 -14 -14 -14 -15 -15 -15 -16 -16 -16 -16 -16 -17 -17 -17 -17 -17 -17 -17 -17 -18 -18 -18 -18 -18 -19 -19 -19 -19 -20 -20 -19 -19 -19 -18 -18 -17 -17 -17 -17 -17
-13 -14 -14 -14 -14 -15 -15 -15 -16 -16 -16 -16 -16 -16 -17 -17 -17 -17 -17 -16 -17 -17 -18 -18 -18 -18 -18 -18 -19 -19 -19 -19 -19 -19 -19 -19 -18 -18 -18 -18 -18 -17 -17
-13 -14 -14 -14 -15 -15 -15 -15 -16 -16 -16 -16 -16 -17 -17 -17 -17 -17 -17 -17 -17 -18 -18 -18 -18 -18 -19 -18 -18 -19 -19 -19 -19 -19 -19 -19 -19 -18 -18 -18 -18 -18 -18
-13 -14 -15 -15 -15 -15 -16 -16 -16 -16 -16 -16 -17 -17 -17 -17 -17 -17 -17 -17 -18 -18 -18 -18 -18 -19 -18 -18 -18 -18 -19 -19 -19 -19 -19 -19 -18 -18 -18 -18 -18 -18 -18
-14 -15 -15 -15 -16 -16 -16 -16 -16 -16 -17 -16 -17 -17 -17 -17 -18 -18 -18 -18 -18 -18 -18 -18 -18 -19 -18 -18 -18 -18 -18 -18 -18 -19 -19 -19 -18 -18 -18 -18 -18 -18 -17
-14 -15 -15 -15 -16 -16 -16 -16 -16 -16 -16 -16 -17 -17 -17 -18 -18 -18 -18 -18 -18 -18 -18 -19 -19 -19 -19 -19 -18 -18 -18 -18 -18 -18 -18 -18 -18 -18 -18 -18 -17 -17 -17
-14 -15 -15 -15 -16 -16 -16 -16 -16 -16 -16 -16 -17 -17 -18 -18 -18 -18 -18 -19 -18 -18 -19 -19 -19 -19 -19 -19 -19 -18 -18 -18 -18 -18 -18 -18 -18 -18 -18 -17 -17 -17 -17
-14 -15 -15 -15 -16 -16 -16 -16 -16 -16 -16 -16 -17 -17 -18 -18 -19 -19 -19 -19 -19 -19 -19 -19 -19 -19 -19 -19 -19 -19 -19 -18 -18 -18 -18 -18 -17 -17 -17 -17 -17 -17 -17
-14 -15 -15 -15 -16 -16 -16 -16 -16 -16 -16 -16 -17 -17 -18 -18 -19 -19 -19 -19 -19 -19 -19 -19 -19 -19 -19 -19 -19 -19 -19 -19 -18 -18 -18 -18 -17 -17 -17 -17 -17 -17 -17
-14 -15 -15 -15 -16 -16 -16 -16 -16 -16 -17 -17 -17 -17 -18 -18 -19 -19 -19 -19 -19 -19 -19 -19 -19 -19 -19 -19 -19 -19 -19 -19 -19 -18 -18 -18 -18 -17 -17 -17 -17 -17 -16
-15 -15 -15 -16 -16 -16 -16 -16 -16 -17 -17 -17 -17 -17 -18 -18 -18 -19 -19 -19 -19 -19 -19 -19 -19 -19 -19 -19 -19 -19 -19 -19 -19 -19 -19 -18 -18 -18 -18 -18 -17 -17 -17
-15 -15 -15 -16 -16 -16 -16 -16 -16 -16 -17 -17 -17 -17 -18 -18 -18 -19 -19 -19 -19 -19 -19 -20 -20 -20 -20 -20 -19 -20 -19 -19 -19 -19 -19 -19 -19 -18 -18 -18 -18 -18 -17
-15 -15 -15 -16 -16 -16 -16 -16 -16 -16 -17 -17 -17 -17 -17 -18 -18 -18 -18 -19 -19 -19 -19 -20 -20 -20 -20 -20 -20 -20 -20 -20 -20 -20 -20 -19 -19 -19 -19 -19 -18 -18 -18
-15 -15 -16 -16 -16 -16 -16 -16 -16 -17 -17 -17 -17 -17 -17 -18 -18 -18 -18 -19 -19 -19 -19 -20 -20 -20 -20 -20 -20 -20 -20 -20 -20 -20 -20 -20 -20 -20 -20 -19 -19 -19 -19
Height
3108 3100 3093 3086 3079 3072 3064 3059 3056 3051 3044 3037 3030 3025 3019 3014 3006 2999 2993 2988 2983 2980 2977 2972 2969 2965 2962 2960 2958 2955 2953 2950 2947 2949 2950 2953 2952 2953 2956 2956 2955 2954 2956
3095 3088 3082 3076 3069 3062 3055 3050 3045 3041 3034 3027 3020 3014 3010 3004 2997 2989 2984 2981 2976 2972 2968 2964 2960 2956 2952 2949 2946 2944 2943 2942 2938 2938 2939 2941 2943 2943 2945 2948 2949 2947 2951
3087 3081 3074 3066 3060 3053 3047 3040 3034 3029 3023 3017 3010 3007 3001 2995 2990 2983 2978 2974 2969 2964 2959 2954 2949 2943 2939 2937 2934 2931 2931 2930 2928 2928 2928 2930 2932 2935 2936 2938 2941 2942 2941
3078 3072 3064 3057 3050 3042 3036 3030 3025 3019 3014 3008 3003 2998 2993 2989 2982 2976 2971 2966 2961 2955 2949 2943 2936 2930 2925 2921 2919 2917 2917 2918 2918 2917 2917 2917 2920 2924 2925 2928 2933 2934 2936
3068 3062 3054 3046 3039 3032 3026 3020 3016 3011 3006 3002 2996 2992 2987 2982 2975 2970 2964 2958 2952 2945 2938 2931 2924 2917 2913 2909 2906 2904 2904 2905 2905 2906 2907 2907 2910 2913 2916 2916 2920 2924 2928
3061 3053 3045 3037 3029 3022 3017 3011 3006 3002 2999 2994 2990 2986 2981 2975 2968 2963 2957 2951 2944 2936 2927 2919 2912 2906 2901 2898 2896 2894 2893 2893 2894 2895 2896 2897 2899 2902 2905 2905 2906 2911 2917
3051 3043 3036 3029 3022 3015 3009 3003 2999 2995 2992 2988 2983 2980 2974 2967 2962 2956 2950 2943 2934 2926 2917 2908 2901 2896 2892 2888 2885 2884 2884 2883 2883 2884 2885 2887 2888 2892 2894 2895 2896 2899 2904
3043 3036 3028 3021 3014 3007 3000 2995 2992 2989 2985 2982 2978 2972 2967 2961 2955 2949 2942 2933 2925 2917 2909 2902 2895 2890 2885 2880 2877 2876 2875 2875 2875 2875 2875 2877 2879 2882 2883 2886 2887 2889 2893
3035 3026 3019 3012 3006 3000 2994 2989 2986 2982 2979 2976 2971 2966 2961 2956 2950 2943 2934 2926 2918 2910 2903 2895 2888 2882 2878 2875 2871 2869 2868 2868 2866 2866 2867 2868 2870 2871 2874 2876 2879 2881 2885
3025 3017 3011 3005 2998 2993 2988 2984 2980 2976 2974 2970 2966 2960 2954 2949 2943 2936 2927 2919 2911 2903 2897 2890 2882 2876 2872 2869 2866 2863 2862 2861 2859 2860 2860 2860 2862 2864 2866 2869 2872 2874 2877
3016 3009 3003 2997 2991 2986 2982 2978 2975 2971 2969 2965 2960 2954 2949 2944 2937 2930 2921 2912 2904 2897 2891 2884 2878 2873 2868 2865 2861 2858 2856 2854 2853 2853 2853 2854 2855 2857 2860 2863 2865 2868 2871
3008 3001 2995 2990 2984 2980 2975 2972 2969 2966 2963 2959 2954 2949 2945 2939 2933 2926 2917 2908 2900 2893 2888 2882 2876 2871 2866 2862 2858 2854 2851 2849 2848 2848 2849 2850 2851 2853 2855 2857 2860 2863 2865
3001 2994 2988 2983 2978 2973 2970 2967 2964 2961 2957 2953 2949 2945 2940 2935 2929 2923 2915 2905 2897 2891 2886 2880 2875 2870 2865 2861 2856 2851 2848 2846 2846 2846 2847 2847 2848 2850 2852 2854 2857 2859 2861
2993 2987 2982 2977 2973 2969 2966 2963 2960 2956 2952 2948 2944 2940 2935 2930 2925 2919 2913 2904 2896 2890 2885 2880 2875 2870 2865 2861 2857 2853 2849 2847 2846 2846 2847 2847 2848 2850 2852 2853 2856 2858 2859
2985 2980 2975 2971 2967 2964 2962 2958 2955 2952 2948 2943 2939 2935 2931 2927 2921 2915 2909 2901 2894 2888 2883 2879 2875 2871 2867 2862 2858 2854 2851 2848 2847 2847 2847 2848 2849 2850 2852 2854 2855 2856 2858
2976 2972 2969 2965 2962 2959 2956 2953 2949 2946 2942 2939 2935 2931 2927 2923 2918 2912 2906 2900 2893 2887 2882 2878 2874 2871 2868 2864 2860 2856 2852 2849 2847 2847 2847 2848 2849 2851 2852 2853 2854 2855 2856
2968 2966 2963 2960 2957 2955 2952 2949 2946 2941 2938 2935 2931 2927 2923 2919 2914 2909 2904 2898 2893 2887 2882 2877 2874 2871 2868 2865 2861 2857 2854 2851 2848 2847 2847 2848 2849 2851 2851 2852 2853 2853 2854
2963 2960 2958 2955 2953 2950 2947 2943 2940 2937 2934 2932 2928 2924 2920 2915 2911 2907 2902 2897 2893 2888 2882 2878 2874 2871 2868 2865 2863 2860 2856 2854 2851 2849 2847 2848 2849 2850 2850 2851 2851 2851 2852
2958 2955 2953 2951 2948 2945 2942 2939 2935 2932 2929 2927 2924 2920 2916 2912 2908 2904 2900 2896 2892 2887 2883 2878 2874 2871 2868 2865 2863 2860 2858 2856 2854 2852 2850 2849 2848 2849 2849 2850 2850 2850 2850
2954 2951 2949 2946 2943 2940 2937 2934 2931 2928 2926 2923 2920 2917 2913 2909 2905 2901 2898 2894 2890 2886 2882 2878 2874 2871 2868 2865 2862 2860 2858 2856 2853 2852 2850 2849 2848 2848 2847 2848 2848 2847 2848
2950 2947 2944 2942 2938 2935 2932 2929 2927 2924 2922 2920 2917 2913 2910 2906 2902 2899 2895 2892 2888 2884 2881 2878 2874 2870 2867 2864 2862 2859 2858 2856 2854 2852 2850 2849 2848 2847 2846 2846 2846 2845 2845
2945 2942 2940 2937 2934 2930 2927 2925 2922 2920 2919 2917 2914 2911 2907 2904 2900 2897 2894 2890 2886 2882 2879 2876 2873 2870 2867 2864 2861 2858 2856 2855 2853 2851 2850 2848 2847 2846 2845 2844 2844 2843 2843
2939 2937 2934 2931 2929 2926 2922 2920 2918 2916 2915 2913 2910 2907 2905 2901 2898 2895 2891 2888 2884 2880 2877 2873 2871 2868 2865 2862 2859 2857 2855 2853 2851 2850 2848 2847 2845 2844 2843 2842 2842 2841 2841
2933 2931 2929 2927 2924 2921 2918 2916 2914 2912 2911 2909 2906 2904 2901 2898 2895 2892 2889 2885 2882 2878 2874 2870 2867 2864 2862 2859 2857 2854 2852 2850 2848 2847 2846 2844 2843 2842 2841 2840 2840 2839 2839
2928 2926 2924 2922 2919 2917 2914 2911 2910 2908 2906 2904 2902 2900 2897 2895 2892 2889 2886 2882 2879 2875 2871 2867 2863 2860 2857 2855 2853 2851 2849 2847 2845 2844 2842 2841 2840 2839 2838 2837 2837 2836 2836
2922 2920 2919 2917 2914 2912 2909 2906 2904 2902 2901 2899 2897 2895 2893 2890 2887 2885 2882 2879 2875 2872 2868 2863 2859 2855 2853 2850 2849 2847 2845 2843 2842 2840 2839 2837 2836 2835 2835 2834 2833 2833 2833
Wind_Speed
52 46 40 40 42 44 44 42 42 47 41 49 49 52 41 42 40 41 40 36 29 27 28 30 31 31 30 30 32 32 36 40 39 34 33 36 33 31 23 22 27 25 25
43 40 40 41 42 42 45 44 44 47 48 50 50 31 37 37 37 36 30 29 30 32 33 35 36 37 38 38 37 34 36 40 42 42 43 29 32 32 30 24 26 29 23
39 38 38 40 41 43 46 50 48 42 43 44 35 29 36 37 40 27 28 32 33 34 38 41 43 44 44 41 41 41 38 36 39 41 41 36 35 35 35 33 29 31 32
38 38 41 43 43 42 43 43 39 38 45 35 27 33 36 38 34 31 33 35 36 40 43 46 47 46 44 42 42 42 40 38 39 40 41 40 37 31 35 37 31 29 30
40 42 44 44 43 39 38 42 45 44 43 39 29 35 37 37 33 34 36 37 41 45 46 47 46 45 41 39 37 37 36 36 36 39 40 44 42 38 35 33 38 37 32
43 44 42 44 44 40 39 41 41 34 36 29 31 35 35 33 34 35 36 40 44 45 45 44 42 41 38 34 32 33 34 34 36 37 37 39 38 34 34 36 37 38 37
45 45 43 44 42 38 36 34 30 25 21 26 31 32 34 34 35 35 39 42 44 44 44 40 37 34 31 29 27 28 29 32 35 37 39 38 38 33 33 33 34 37 38
46 46 42 42 38 36 34 28 24 24 22 26 28 33 35 34 34 37 40 44 44 43 36 33 33 31 28 26 24 23 24 26 29 32 35 36 33 31 31 30 32 34 36
48 46 43 41 37 34 31 27 23 22 22 26 30 36 35 32 33 37 41 43 43 36 30 30 31 29 25 22 23 21 21 20 23 26 27 29 28 27 26 28 30 32 32
49 46 43 39 35 32 28 24 23 23 26 30 34 36 33 32 34 37 42 41 39 32 29 29 27 24 21 20 21 21 19 18 20 21 24 25 24 24 24 25 25 27 27
47 43 41 36 33 30 26 25 25 25 27 32 33 31 31 31 34 36 39 41 37 31 30 29 25 21 19 18 19 19 19 16 15 16 17 19 20 19 19 20 20 21 21
43 40 37 33 31 27 26 25 24 25 26 27 27 29 28 29 31 33 36 38 33 29 28 27 23 20 19 19 18 17 16 14 11 9 8 9 11 13 14 15 16 15 15
40 38 35 31 27 25 24 21 21 23 24 23 26 26 24 27 28 30 33 34 28 26 25 24 22 20 18 17 18 17 12 6 3 2 2 3 5 6 8 9 9 8 8
37 35 31 29 24 20 19 21 21 22 22 24 25 23 23 25 25 27 30 30 26 23 22 21 20 19 17 18 18 16 11 7 4 1 1 2 4 5 5 6 7 5 4
34 30 28 26 22 20 20 21 21 21 23 24 24 22 21 23 24 26 29 30 29 24 21 20 19 16 16 18 16 15 14 11 4 1 1 2 4 6 6 6 6 4 2
31 25 25 24 22 21 21 22 23 22 22 23 23 21 21 22 23 24 26 28 29 25 21 18 17 14 16 18 18 17 16 15 9 1 2 4 5 6 6 7 7 7 7
25 21 23 22 21 20 21 22 22 21 21 21 20 20 21 21 21 22 23 25 27 25 22 18 16 14 14 16 18 18 17 16 15 7 3 5 5 6 7 7 7 9 10
23 21 19 17 18 21 23 23 21 19 17 17 17 19 20 20 19 20 20 22 23 24 22 18 16 14 14 14 15 15 16 15 14 11 3 2 4 4 5 5 6 7 8
21 18 16 16 17 19 22 21 19 18 17 16 16 18 19 19 19 19 20 20 21 21 21 19 17 16 15 14 14 15 14 12 11 10 7 2 2 3 3 4 4 6 8
21 17 16 17 19 20 20 18 18 16 15 15 17 18 19 19 18 18 19 19 19 19 19 19 18 17 16 15 15 13 14 13 12 9 7 5 3 2 3 5 6 7 8
20 18 17 18 20 21 19 17 16 15 13 15 16 18 19 19 17 17 18 18 18 17 17 18 18 17 16 15 15 14 13 11 11 9 8 6 5 3 3 3 4 4 3
21 18 18 18 20 21 19 16 15 14 13 14 16 17 18 16 16 16 16 17 18 19 18 17 16 16 15 15 15 14 13 13 11 10 9 8 6 6 5 4 5 5 5
19 18 18 18 20 20 17 16 14 13 14 15 16 16 16 15 15 16 17 17 18 18 19 19 17 16 16 16 14 14 13 12 12 12 11 9 8 7 6 6 7 7 6
18 17 17 17 19 19 17 16 15 14 14 15 16 16 16 15 15 16 17 18 19 20 20 20 20 18 16 16 16 15 14 14 13 12 12 12 10 8 8 7 7 7 7
16 17 17 17 17 18 17 17 16 16 16 16 16 16 15 15 15 15 17 18 20 22 23 22 21 20 18 18 16 16 15 14 14 13 13 12 12 12 10 8 8 8 8
17 18 18 19 19 19 19 18 18 19 18 18 17 17 17 16 16 16 18 20 22 23 24 25 23 21 19 18 17 16 15 15 14 14 13 13 12 11 12 12 11 9 9
Wind_Direction
301 305 304 306 307 308 310 312 309 306 297 311 310 302 310 311 315 316 316 307 306 307 303 301 298 296 292 285 277 272 265 270 277 266 260 254 263 264 257 269 269 263 255
311 314 315 313 312 310 308 307 304 303 309 301 314 304 317 316 320 325 315 309 309 308 307 305 301 296 292 289 285 278 271 266 270 270 268 255 253 259 263 266 265 262 246
316 316 313 313 312 306 304 302 309 306 313 303 300 319 318 321 325 324 314 312 311 311 311 309 306 301 295 289 283 279 274 271 269 265 267 270 264 255 256 264 262 255 253
320 318 318 316 315 310 303 304 310 309 318 300 322 322 322 320 323 321 316 315 316 314 311 309 306 302 298 293 283 277 274 269 265 264 261 263 265 264 259 257 248 247 250
325 324 321 318 314 308 302 297 298 311 312 306 319 318 320 317 322 318 318 318 317 315 313 310 306 302 299 292 287 281 274 267 263 261 260 260 263 264 262 259 244 237 238
325 324 322 317 318 313 309 304 307 308 306 315 308 315 313 321 322 319 318 319 317 315 314 310 306 304 300 292 283 273 271 266 261 259 260 260 262 265 263 259 252 244 241
327 324 321 318 318 314 312 308 312 309 318 303 312 311 323 322 317 316 318 320 321 319 316 313 310 309 307 301 285 275 267 264 262 260 261 262 263 263 260 254 252 245 240
322 320 320 321 321 319 318 315 314 314 309 307 308 322 323 317 316 316 323 324 323 323 318 313 309 309 305 299 296 283 275 268 265 264 263 263 263 259 258 251 246 246 244
321 321 322 322 320 319 318 317 313 317 317 316 317 320 317 315 316 323 325 326 326 324 321 318 316 313 307 299 295 294 286 279 268 265 263 263 264 258 253 249 248 249 249
320 321 321 319 319 317 313 311 309 314 318 311 311 315 314 318 321 327 327 328 328 328 326 328 326 321 314 304 296 296 289 280 272 265 262 260 257 252 247 247 248 249 250
318 321 321 320 318 317 312 305 308 310 303 304 312 313 316 320 324 328 329 331 332 332 335 339 337 333 325 315 308 306 303 296 280 270 260 257 256 252 249 247 244 246 245
319 321 321 319 316 313 310 307 302 299 304 312 311 314 318 320 325 329 334 335 334 334 339 341 341 342 340 336 331 322 312 301 289 283 268 253 243 239 238 236 236 242 248
320 321 320 316 315 314 314 315 314 312 310 309 313 317 320 323 327 333 339 339 337 337 339 342 345 346 349 352 351 345 345 345 324 301 253 227 214 211 212 214 216 221 229
319 317 315 314 314 314 315 315 312 310 312 314 318 322 323 325 328 333 341 346 348 342 339 341 344 348 357 4 2 3 2 2 6 36 119 148 168 171 174 177 182 191 210
315 312 312 313 312 312 311 313 312 311 313 316 320 324 320 324 329 336 341 351 355 348 343 343 345 351 6 2 8 14 17 13 1 31 123 147 163 176 182 187 201 216 248
312 311 312 310 309 308 311 315 315 314 316 318 320 318 318 324 328 334 341 352 355 351 348 346 346 352 1 6 13 18 21 23 25 51 158 171 191 190 206 215 225 236 247
315 309 302 304 305 306 311 315 316 313 314 315 317 316 321 326 329 332 342 350 352 356 354 349 348 344 349 1 6 10 15 21 24 24 186 200 213 223 224 232 241 234 232
317 309 307 305 303 304 310 315 317 315 313 313 319 320 325 330 331 334 342 345 348 355 356 355 350 345 343 354 3 7 9 14 21 24 36 216 218 215 237 246 239 228 232
317 314 308 304 306 306 309 315 316 316 316 320 326 326 330 331 332 336 339 338 340 350 356 355 353 352 343 341 346 357 1 7 15 20 31 42 231 232 244 265 260 246 244
317 311 306 310 313 311 310 316 314 313 315 322 328 331 333 334 334 336 334 334 335 343 350 352 352 349 347 344 339 339 350 354 357 1 4 9 358 306 276 274 271 264 259
311 305 305 309 316 315 313 312 306 307 311 321 329 334 337 336 337 336 336 334 336 337 340 344 344 346 345 340 338 335 326 334 343 342 339 336 333 319 297 292 281 274 273
303 302 304 311 318 316 309 303 302 302 305 317 328 335 336 336 337 338 340 341 341 338 333 333 335 336 338 337 333 331 331 321 317 324 326 321 314 307 297 298 291 280 281
295 297 302 309 316 318 309 303 300 296 301 312 322 330 334 338 338 339 342 343 341 340 335 329 324 325 327 326 327 326 323 319 314 305 304 309 307 301 293 289 283 280 277
291 293 299 305 311 314 311 302 297 296 300 308 313 321 329 333 335 337 339 342 342 340 335 328 324 316 316 315 317 317 317 315 312 307 300 290 287 291 289 283 276 275 272
291 293 297 300 305 310 311 303 296 293 298 303 306 311 317 320 324 329 334 335 338 339 337 332 323 317 310 305 308 308 309 310 309 306 302 297 289 275 269 275 279 276 276
292 287 289 292 297 300 304 303 296 291 291 296 300 303 306 311 314 319 325 330 333 335 335 333 325 313 307 302 299 301 303 305 305 303 301 297 292 287 281 271 262 268 275